SOHLA-1 (MAIDO-1)

Satellite information

Favourite Embed

Satellite Type and Status

PAYLOADIN ORBIT

Key statistics

Satellite SOHLA-1 (MAIDO-1) at a glance.

Uptime

5950

Days in orbit

Revolutions

≈ 14.7

Per day

Orbit

SSO

Sun Synchronous Orbit

Inclination

98.2

Latest

Satellite identification and parameters

Extended collection of information and parameters for SOHLA-1 (MAIDO-1).

Object identification

Identified? True

Debris? False

Object name: SOHLA-1 (MAIDO-1)

International designator: 2009-002E

Object number (NORAD): 33496

Object ID (CCSDS): 33496

Country: JAPAN (JPN)

Current information (Y/N): Y

RCS size: MEDIUM

Orbital parameters

Period: 97.666 minutes

Inclination: 98.1724 deg

SMA: 7025.148 km

Apoapsis: 650.461 km

Periapsis: 643.565 km

RAAN: 25.6855 deg

Eccentricy: 0.0004908

Argument of periapsis: 217.6102 deg

Mean anomaly: 142.4763 deg

Mean motion: 14.74414459 rev/day

Mean motion (dot): 0.00000711 rev/day2

B* drag term: 0.00011507 1/REarth

Two-line elements (TLE)

Creation date: May 9, 2025, 2:46 a.m.

Reference frame: TEME

Reference center: EARTH

Epoch: May 8, 2025, 4:45 p.m. UTC

TLE line 0: 0 SOHLA-1 (MAIDO-1)

TLE line 1: 1 33496U 09002E 25128.69816140 .00000711 00000-0 11507-3 0 9995

TLE line 2: 2 33496 98.1724 25.6855 0004908 217.6102 142.4763 14.74414459874378

Live tracking on map

Real-time ground track for satellite SOHLA-1 (MAIDO-1).

In-orbit conjunctions

A list of the most updated potential collisions computed for object SOHLA-1 (MAIDO-1).

Target Orbit TCA Probability of collision Miss distance Type
CZ-4C R/B SSO 2024-10-27 17:34:25 0.0001522884 156.0 (m) ROCKET BODY
CZ-6A DEB SSO 2024-09-30 23:54:17 0.0001015603 199.0 (m) DEBRIS

Associated space launch

Japanese Earth observation satellite. Launched with 7 secondary payloads.

SOHLA-1 (MAIDO-1) was lifted into orbit during the mission ‘H-IIA 202 | GOSAT’, on board a H-IIA space rocket.

The launch took place on Jan. 23, 2009, 3:54 a.m. from Yoshinobu Launch Complex LP-1.

For more information about the launch, click the button.

Launch to space H-IIA 202 | GOSAT
H-IIA 202 | GOSAT

Agency: N/A

Status: Launch Successful

Launch date: Jan. 23, 2009, 3:54 a.m. UTC

Rocket: H-IIA

Launch pad: Yoshinobu Launch Complex LP-1

Location: Tanegashima Space Center, Japan

...

Latest news about this satellite

There are no fresh news available about this satellite. Check back as we update our databases every day.


Newsletter sign-up

Weekly statistics, charts and insights to help you stay on top of the space industry.